When you browse on this site, cookies collect data to enhance your experience and personalize the content and advertising you see.
Visit our Privacy Policy to learn more. By continuing to use the site, you agree to this use of cookies and data.
  • In Romania
  • List of Countries
  • For 7 days
  • Water Temperature
  • Satellite Maps
  • Weather Map
  • Weather Widgets
  • user-avatar
    Login

    Hourly Weather Kalmazan

    Today, 19 July, Friday

    Time Temperature Precipitation Wind Pressure Humidity
    00:00 +19°C° 0.1 mm 3 mps 740 mmHg 86%
    01:00 +18°C° 0.1 mm 3 mps 740 mmHg 90%
    02:00 +18°C° 0.1 mm 3 mps 740 mmHg 90%
    03:00 +18°C° 0.1 mm 3 mps 740 mmHg 90%
    04:00 +18°C° 0.1 mm 2 mps 740 mmHg 90%
    05:00 +19°C° 0 mm 3 mps 740 mmHg 90%
    06:00 +20°C° 0 mm 3 mps 740 mmHg 89%
    07:00 +21°C° 0 mm 3 mps 740 mmHg 89%
    08:00 +22°C° 0 mm 3 mps 740 mmHg 87%
    09:00 +24°C° 0 mm 3 mps 740 mmHg 85%
    10:00 +25°C° 0 mm 4 mps 740 mmHg 83%
    11:00 +26°C° 0.1 mm 4 mps 740 mmHg 83%
    12:00 +26°C° 0.1 mm 4 mps 740 mmHg 82%
    13:00 +27°C° 0.1 mm 4 mps 740 mmHg 82%
    14:00 +27°C° 0.4 mm 4 mps 740 mmHg 82%
    15:00 +26°C° 0.4 mm 4 mps 740 mmHg 83%
    16:00 +26°C° 0.4 mm 4 mps 741 mmHg 83%
    17:00 +26°C° 0.1 mm 3 mps 741 mmHg 85%
    18:00 +25°C° 0.1 mm 3 mps 741 mmHg 87%
    19:00 +25°C° 0.1 mm 3 mps 741 mmHg 89%
    20:00 +22°C° 0 mm 3 mps 741 mmHg 92%
    21:00 +21°C° 0 mm 3 mps 741 mmHg 94%
    22:00 +20°C° 0 mm 2 mps 742 mmHg 96%
    23:00 +20°C° 0 mm 2 mps 742 mmHg 97%

    Tomorrow, 20 July, Saturday

    Time Temperature Precipitation Wind Pressure Humidity
    00:00 +19°C° 0 mm 3 mps 742 mmHg 97%
    01:00 +18°C° 0 mm 3 mps 742 mmHg 98%
    02:00 +18°C° 0 mm 3 mps 742 mmHg 98%
    03:00 +18°C° 0 mm 3 mps 743 mmHg 97%
    04:00 +17°C° 0 mm 2 mps 743 mmHg 97%
    05:00 +18°C° 0 mm 3 mps 743 mmHg 95%
    06:00 +19°C° 0 mm 3 mps 743 mmHg 94%
    07:00 +19°C° 0 mm 3 mps 744 mmHg 92%
    08:00 +21°C° 0 mm 3 mps 744 mmHg 87%
    09:00 +22°C° 0 mm 3 mps 744 mmHg 81%
    10:00 +24°C° 0 mm 3 mps 744 mmHg 76%
    11:00 +25°C° 0 mm 3 mps 744 mmHg 73%
    12:00 +25°C° 0 mm 3 mps 744 mmHg 69%
    13:00 +26°C° 0 mm 3 mps 744 mmHg 66%
    14:00 +26°C° 0 mm 3 mps 744 mmHg 67%
    15:00 +26°C° 0 mm 3 mps 744 mmHg 68%
    16:00 +25°C° 0 mm 3 mps 744 mmHg 69%
    17:00 +25°C° 0 mm 2 mps 744 mmHg 72%
    18:00 +24°C° 0 mm 2 mps 744 mmHg 76%
    19:00 +23°C° 0 mm 2 mps 744 mmHg 80%
    20:00 +21°C° 0 mm 2 mps 744 mmHg 82%
    21:00 +20°C° 0 mm 2 mps 744 mmHg 84%
    22:00 +20°C° 0 mm 1 mps 743 mmHg 86%
    23:00 +19°C° 0 mm 1 mps 743 mmHg 88%

    Day after tomorrow, 21 July, Sunday

    Time Temperature Precipitation Wind Pressure Humidity
    00:00 +18°C° 0 mm 1 mps 743 mmHg 90%
    01:00 +18°C° 0 mm 1 mps 743 mmHg 92%
    02:00 +16°C° 0 mm 1 mps 743 mmHg 93%
    03:00 +16°C° 0 mm 1 mps 743 mmHg 94%
    04:00 +15°C° 0 mm 1 mps 743 mmHg 95%
    05:00 +16°C° 0 mm 2 mps 743 mmHg 93%
    06:00 +17°C° 0 mm 2 mps 743 mmHg 92%
    07:00 +18°C° 0 mm 2 mps 743 mmHg 90%
    08:00 +19°C° 0.1 mm 3 mps 743 mmHg 86%
    09:00 +21°C° 0.1 mm 3 mps 742 mmHg 82%
    10:00 +22°C° 0.1 mm 4 mps 742 mmHg 78%
    11:00 +22°C° 0.1 mm 4 mps 742 mmHg 76%
    12:00 +23°C° 0.1 mm 4 mps 742 mmHg 74%
    13:00 +23°C° 0.1 mm 4 mps 742 mmHg 72%
    14:00 +23°C° 0.3 mm 4 mps 742 mmHg 73%
    15:00 +23°C° 0.3 mm 5 mps 742 mmHg 75%
    16:00 +23°C° 0.3 mm 5 mps 742 mmHg 76%
    17:00 +22°C° 0.3 mm 4 mps 742 mmHg 80%
    18:00 +21°C° 0.3 mm 4 mps 742 mmHg 83%
    19:00 +21°C° 0.3 mm 3 mps 742 mmHg 86%
    20:00 +19°C° 0.4 mm 3 mps 742 mmHg 89%
    21:00 +18°C° 0.4 mm 3 mps 742 mmHg 91%
    22:00 +17°C° 0.4 mm 3 mps 742 mmHg 93%
    23:00 +16°C° 0 mm 3 mps 742 mmHg 94%

    22 July, Monday

    Time Temperature Precipitation Wind Pressure Humidity
    00:00 +16°C° 0 mm 3 mps 741 mmHg 95%
    01:00 +16°C° 0 mm 3 mps 741 mmHg 96%
    02:00 +14°C° 0 mm 3 mps 741 mmHg 96%
    03:00 +14°C° 0 mm 3 mps 741 mmHg 97%
    04:00 +14°C° 0 mm 3 mps 741 mmHg 97%
    05:00 +14°C° 0 mm 3 mps 741 mmHg 96%
    06:00 +16°C° 0 mm 3 mps 741 mmHg 96%
    07:00 +17°C° 0 mm 3 mps 741 mmHg 95%
    08:00 +18°C° 0.2 mm 4 mps 741 mmHg 92%
    09:00 +19°C° 0.2 mm 4 mps 740 mmHg 89%
    10:00 +20°C° 0.2 mm 4 mps 740 mmHg 86%
    11:00 +20°C° 0.8 mm 4 mps 740 mmHg 84%
    12:00 +21°C° 0.8 mm 4 mps 740 mmHg 82%
    13:00 +22°C° 0.8 mm 5 mps 740 mmHg 80%
    14:00 +21°C° 0.7 mm 5 mps 740 mmHg 80%
    15:00 +21°C° 0.7 mm 5 mps 740 mmHg 81%
    16:00 +21°C° 0.7 mm 6 mps 740 mmHg 81%
    17:00 +21°C° 0.1 mm 5 mps 740 mmHg 83%
    18:00 +20°C° 0.1 mm 4 mps 740 mmHg 85%
    19:00 +20°C° 0.1 mm 3 mps 740 mmHg 86%
    20:00 +18°C° 0 mm 3 mps 740 mmHg 89%
    21:00 +17°C° 0 mm 3 mps 739 mmHg 92%
    22:00 +16°C° 0 mm 3 mps 739 mmHg 95%
    23:00 +14°C° 0 mm 3 mps 739 mmHg 96%

    23 July, Tuesday

    Time Temperature Precipitation Wind Pressure Humidity
    00:00 +14°C° 0 mm 4 mps 739 mmHg 96%
    01:00 +14°C° 0 mm 4 mps 739 mmHg 97%
    02:00 +14°C° 0.2 mm 4 mps 739 mmHg 97%
    03:00 +13°C° 0.2 mm 4 mps 739 mmHg 98%
    04:00 +13°C° 0.2 mm 4 mps 739 mmHg 98%
    05:00 +13°C° 0.4 mm 4 mps 739 mmHg 97%
    06:00 +14°C° 0.4 mm 4 mps 739 mmHg 97%
    07:00 +14°C° 0.4 mm 4 mps 740 mmHg 97%
    08:00 +15°C° 0.1 mm 4 mps 740 mmHg 95%
    09:00 +15°C° 0.1 mm 4 mps 740 mmHg 94%
    10:00 +17°C° 0.1 mm 4 mps 740 mmHg 93%
    11:00 +18°C° 0 mm 4 mps 740 mmHg 91%
    12:00 +18°C° 0 mm 4 mps 740 mmHg 90%
    13:00 +18°C° 0 mm 4 mps 740 mmHg 89%
    14:00 +19°C° 0.1 mm 4 mps 741 mmHg 87%
    15:00 +19°C° 0.1 mm 4 mps 741 mmHg 86%
    16:00 +19°C° 0.1 mm 4 mps 741 mmHg 85%
    17:00 +19°C° 0 mm 4 mps 741 mmHg 86%
    18:00 +19°C° 0 mm 3 mps 741 mmHg 87%
    19:00 +18°C° 0 mm 3 mps 741 mmHg 87%
    20:00 +18°C° 0 mm 3 mps 741 mmHg 89%
    21:00 +17°C° 0 mm 3 mps 741 mmHg 90%
    22:00 +16°C° 0 mm 2 mps 742 mmHg 92%
    23:00 +16°C° 0 mm 2 mps 742 mmHg 93%

    24 July, Wednesday

    Time Temperature Precipitation Wind Pressure Humidity
    00:00 +15°C° 0 mm 2 mps 742 mmHg 94%
    01:00 +15°C° 0 mm 2 mps 742 mmHg 95%
    02:00 +14°C° 0 mm 2 mps 742 mmHg 95%
    03:00 +14°C° 0 mm 2 mps 742 mmHg 96%
    04:00 +14°C° 0 mm 2 mps 742 mmHg 96%
    05:00 +15°C° 0 mm 2 mps 742 mmHg 94%
    06:00 +16°C° 0 mm 3 mps 743 mmHg 91%
    07:00 +17°C° 0 mm 3 mps 743 mmHg 89%
    08:00 +17°C° 0 mm 3 mps 743 mmHg 89%
    09:00 +18°C° 0 mm 3 mps 743 mmHg 88%
    10:00 +18°C° 0 mm 3 mps 743 mmHg 87%
    11:00 +19°C° 0 mm 3 mps 743 mmHg 84%
    12:00 +20°C° 0 mm 4 mps 744 mmHg 81%
    13:00 +21°C° 0 mm 4 mps 744 mmHg 78%
    14:00 +22°C° 0.1 mm 4 mps 744 mmHg 78%
    15:00 +22°C° 0.1 mm 4 mps 744 mmHg 78%
    16:00 +22°C° 0.1 mm 4 mps 744 mmHg 78%
    17:00 +22°C° 0.4 mm 3 mps 744 mmHg 81%
    18:00 +21°C° 0.4 mm 3 mps 744 mmHg 84%
    19:00 +21°C° 0.4 mm 2 mps 745 mmHg 86%
    20:00 +20°C° 0 mm 2 mps 745 mmHg 88%
    21:00 +19°C° 0 mm 2 mps 745 mmHg 89%
    22:00 +18°C° 0 mm 1 mps 745 mmHg 91%
    23:00 +18°C° 0 mm 1 mps 745 mmHg 91%
    Show more